CFG442 EDDL-LTAI

Flight info

Callsign CFG442
Flight time N/A
Altitude 35000
Route DODEN7Z DODEN Y853 BOMBI DCT ESATI DCT OSBIT DCT TENLO DCT LAMSI DCT SITNI DCT SASAL DCT BABIT DCT NISVA N131 RODIP DCT BELGI UN131 KOZLU
Aircraft A320/M-SDE3FGHIRWY/LB1

Departure

Time 2026-05-01 13:51
Airport Düsseldorf Airport (EDDL)

Arrival

Time N/A
Airport Antalya International Airport (LTAI)
Time Latitude Longitude Altitude Speed Heading
2026-05-01 13:22 51.27653 6.76144 118 ft 0 kts 79°
2026-05-01 13:40 51.27651 6.76127 115 ft 2 kts 79°
2026-05-01 13:40 51.27648 6.76102 117 ft 2 kts 79°
2026-05-01 13:40 51.27645 6.76076 116 ft 2 kts 79°
2026-05-01 13:40 51.27639 6.76052 115 ft 2 kts 27°
2026-05-01 13:41 51.27624 6.76045 114 ft 2 kts 356°
2026-05-01 13:41 51.27608 6.76052 117 ft 2 kts 335°
2026-05-01 13:41 51.27606 6.76053 116 ft 0 kts 335°
2026-05-01 13:43 51.27612 6.76049 117 ft 2 kts 335°
2026-05-01 13:43 51.27633 6.76039 116 ft 4 kts 348°
2026-05-01 13:44 51.27662 6.76039 116 ft 4 kts
2026-05-01 13:44 51.27691 6.76039 118 ft 5 kts
2026-05-01 13:44 51.27729 6.76041 116 ft 6 kts
2026-05-01 13:44 51.27771 6.76042 118 ft 7 kts
2026-05-01 13:45 51.27822 6.76044 116 ft 8 kts
2026-05-01 13:45 51.27877 6.76046 118 ft 7 kts
2026-05-01 13:45 51.27928 6.76047 118 ft 8 kts
2026-05-01 13:45 51.27984 6.76048 118 ft 9 kts 359°
2026-05-01 13:46 51.28048 6.76048 116 ft 9 kts 360°
2026-05-01 13:46 51.28109 6.76023 115 ft 10 kts 341°
2026-05-01 13:46 51.28158 6.76075 115 ft 9 kts 54°
2026-05-01 13:46 51.28203 6.76173 115 ft 12 kts 52°
2026-05-01 13:47 51.28262 6.76298 117 ft 15 kts 52°
2026-05-01 13:47 51.28333 6.76447 116 ft 18 kts 53°
2026-05-01 13:47 51.28415 6.76620 115 ft 21 kts 53°
2026-05-01 13:47 51.28508 6.76815 118 ft 23 kts 52°
2026-05-01 13:48 51.28610 6.77028 116 ft 25 kts 52°
2026-05-01 13:48 51.28719 6.77261 115 ft 27 kts 54°
2026-05-01 13:48 51.28835 6.77503 114 ft 29 kts 52°
2026-05-01 13:48 51.28947 6.77735 116 ft 26 kts 52°
2026-05-01 13:49 51.29060 6.77973 116 ft 28 kts 52°
2026-05-01 13:49 51.29178 6.78223 115 ft 29 kts 53°
2026-05-01 13:49 51.29275 6.78424 115 ft 19 kts 54°
2026-05-01 13:49 51.29362 6.78567 115 ft 16 kts 12°
2026-05-01 13:50 51.29477 6.78564 118 ft 12 kts 353°
2026-05-01 13:50 51.29531 6.78509 116 ft 8 kts 258°
2026-05-01 13:50 51.29495 6.78419 115 ft 11 kts 233°
2026-05-01 13:50 51.29432 6.78286 117 ft 28 kts 232°
2026-05-01 13:51 51.29148 6.77707 118 ft 100 kts 235°
2026-05-01 13:51 51.28620 6.76568 117 ft 153 kts 233°
2026-05-01 13:51 51.27957 6.75114 624 ft 153 kts 231°
2026-05-01 13:51 51.27369 6.73733 1413 ft 153 kts 228°
2026-05-01 13:52 51.26674 6.72257 1752 ft 177 kts 227°
2026-05-01 13:52 51.25867 6.70680 2156 ft 193 kts 225°
2026-05-01 13:52 51.24990 6.68930 2522 ft 210 kts 227°
2026-05-01 13:52 51.24054 6.66996 2922 ft 231 kts 228°
2026-05-01 13:53 51.22998 6.64933 3390 ft 248 kts 218°
2026-05-01 13:53 51.19742 6.63689 5033 ft 253 kts 173°
2026-05-01 13:53 51.17977 6.64016 5884 ft 257 kts 173°
2026-05-01 13:54 51.16201 6.64333 6794 ft 259 kts 172°
2026-05-01 13:54 51.14510 6.65351 7504 ft 265 kts 143°
2026-05-01 13:54 51.13384 6.67683 8254 ft 274 kts 114°
2026-05-01 13:54 51.13095 6.70713 9027 ft 284 kts 90°
2026-05-01 13:55 51.13260 6.73855 9854 ft 287 kts 89°
2026-05-01 13:55 51.13408 6.77032 10560 ft 291 kts 90°
2026-05-01 13:55 51.13528 6.80372 10804 ft 313 kts 90°
2026-05-01 13:55 51.13635 6.83965 10964 ft 336 kts 90°
2026-05-01 13:56 51.13750 6.87743 11378 ft 347 kts 90°
2026-05-01 13:56 51.13783 6.91603 12000 ft 348 kts 98°
2026-05-01 13:56 51.13146 6.95286 12651 ft 347 kts 117°
2026-05-01 13:56 51.11833 6.98508 13309 ft 348 kts 127°
2026-05-01 13:57 51.10396 7.01629 13977 ft 351 kts 127°
2026-05-01 13:57 51.09446 7.03708 14383 ft 353 kts 127°
2026-05-01 13:57 51.07504 7.07969 15148 ft 357 kts 126°
2026-05-01 13:57 51.06044 7.11173 15732 ft 360 kts 127°
2026-05-01 13:58 51.04567 7.14408 16281 ft 364 kts 127°
2026-05-01 13:58 51.03074 7.17667 16822 ft 367 kts 127°
2026-05-01 13:58 51.01561 7.20958 17396 ft 370 kts 127°
2026-05-01 13:58 51.00036 7.24268 17936 ft 373 kts 127°
2026-05-01 13:59 50.98499 7.27603 18453 ft 376 kts 127°
2026-05-01 13:59 50.96940 7.30985 18931 ft 379 kts 127°
2026-05-01 13:59 50.95419 7.34278 19376 ft 382 kts 127°
2026-05-01 13:59 50.93843 7.37688 19829 ft 384 kts 127°
2026-05-01 14:00 50.92793 7.39954 20124 ft 386 kts 126°
2026-05-01 14:00 50.90653 7.44563 20712 ft 390 kts 126°
2026-05-01 14:00 50.89037 7.48039 21116 ft 393 kts 126°
2026-05-01 14:00 50.87412 7.51534 21553 ft 396 kts 126°
2026-05-01 14:01 50.85774 7.55057 21981 ft 399 kts 126°
2026-05-01 14:01 50.84147 7.58553 22360 ft 402 kts 126°
2026-05-01 14:01 50.82688 7.62320 22759 ft 404 kts 118°
2026-05-01 14:01 50.81352 7.66255 23175 ft 407 kts 117°
2026-05-01 14:02 50.80015 7.70225 23577 ft 410 kts 117°
2026-05-01 14:02 50.78674 7.74218 23958 ft 413 kts 117°
2026-05-01 14:02 50.77322 7.78247 24271 ft 416 kts 117°
2026-05-01 14:02 50.75959 7.82282 24598 ft 418 kts 117°
2026-05-01 14:03 50.74579 7.86346 24906 ft 421 kts 117°
2026-05-01 14:03 50.73199 7.90420 25226 ft 423 kts 117°
2026-05-01 14:03 50.71805 7.94530 25561 ft 425 kts 117°
2026-05-01 14:03 50.70407 7.98651 25886 ft 427 kts 117°
2026-05-01 14:04 50.69480 8.01378 26079 ft 428 kts 117°
2026-05-01 14:04 50.67592 8.06923 26513 ft 431 kts 117°
2026-05-01 14:04 50.66167 8.11095 26810 ft 433 kts 117°
2026-05-01 14:04 50.65219 8.13868 27009 ft 434 kts 117°
2026-05-01 14:05 50.63304 8.19447 27408 ft 437 kts 117°
2026-05-01 14:05 50.61849 8.23672 27697 ft 439 kts 117°
2026-05-01 14:05 50.60386 8.27910 27982 ft 441 kts 117°
2026-05-01 14:05 50.58921 8.32148 28245 ft 443 kts 117°